Time,TemperatureF,DewpointF,PressureIn,WindDirection,WindDirectionDegrees,WindSpeedMPH,WindSpeedGustMPH,Humidity,HourlyPrecipIn,Conditions,Clouds,dailyrainin,SoftwareType,DateUTC
2013-04-09 00:10:00,40.2,35.0,30.00,NNE,27,6.0,-999.0,82,-99.99,,,0.00,weatherlink.com 1.10,2013-04-09 05:10:00,
2013-04-09 00:25:00,40.2,35.0,30.01,NE,34,6.0,-999.0,81,-99.99,,,0.00,weatherlink.com 1.10,2013-04-09 05:25:00,
2013-04-09 00:40:00,39.9,35.0,30.01,ENE,65,6.0,-999.0,81,-99.99,,,0.00,weatherlink.com 1.10,2013-04-09 05:40:00,
2013-04-09 00:55:00,39.9,35.0,30.00,NE,46,4.0,-999.0,81,-99.99,,,0.00,weatherlink.com 1.10,2013-04-09 05:55:00,
2013-04-09 01:10:00,39.8,34.0,30.00,NNE,19,9.0,-999.0,81,-99.99,,,0.00,weatherlink.com 1.10,2013-04-09 06:10:00,
2013-04-09 01:25:00,39.6,35.0,29.99,NNE,26,2.0,-999.0,82,-99.99,,,0.00,weatherlink.com 1.10,2013-04-09 06:25:00,
2013-04-09 01:40:00,39.8,34.0,29.99,ENE,68,4.0,-999.0,81,-99.99,,,0.00,weatherlink.com 1.10,2013-04-09 06:40:00,
2013-04-09 01:55:00,39.8,34.0,29.99,NE,36,5.0,-999.0,81,-99.99,,,0.00,weatherlink.com 1.10,2013-04-09 06:55:00,
2013-04-09 02:10:00,39.8,35.0,29.99,NE,47,10.0,-999.0,82,-99.99,,,0.00,weatherlink.com 1.10,2013-04-09 07:10:00,
2013-04-09 02:25:00,39.5,34.0,29.99,NNE,22,7.0,-999.0,82,-99.99,,,0.00,weatherlink.com 1.10,2013-04-09 07:25:00,
2013-04-09 02:40:00,39.2,35.0,29.98,NE,34,6.0,-999.0,83,-99.99,,,0.00,weatherlink.com 1.10,2013-04-09 07:40:00,
2013-04-09 02:55:00,38.9,34.0,29.95,ENE,63,6.0,-999.0,83,-99.99,,,0.00,weatherlink.com 1.10,2013-04-09 07:55:00,
2013-04-09 03:10:00,38.8,34.0,29.92,NE,41,2.0,-999.0,84,-99.99,,,0.00,weatherlink.com 1.10,2013-04-09 08:10:00,
2013-04-09 03:25:00,38.6,34.0,29.98,NE,51,5.0,-999.0,84,-99.99,,,0.00,weatherlink.com 1.10,2013-04-09 08:25:00,
2013-04-09 03:40:00,38.5,34.0,29.99,NE,50,4.0,-999.0,84,-99.99,,,0.00,weatherlink.com 1.10,2013-04-09 08:40:00,
2013-04-09 03:55:00,38.3,34.0,29.97,ENE,77,2.0,-999.0,85,-99.99,,,0.00,weatherlink.com 1.10,2013-04-09 08:55:00,
2013-04-09 04:10:00,38.3,34.0,30.02,East,94,4.0,-999.0,84,-99.99,,,0.00,weatherlink.com 1.10,2013-04-09 09:10:00,
2013-04-09 04:25:00,38.2,34.0,30.02,NE,52,1.0,-999.0,84,-99.99,,,0.00,weatherlink.com 1.10,2013-04-09 09:25:00,
2013-04-09 04:40:00,38.0,34.0,30.00,NNE,26,5.0,-999.0,84,-99.99,,,0.00,weatherlink.com 1.10,2013-04-09 09:40:00,
2013-04-09 04:55:00,38.0,33.0,30.00,NE,44,9.0,-999.0,83,-99.99,,,0.00,weatherlink.com 1.10,2013-04-09 09:55:00,
2013-04-09 05:10:00,37.8,33.0,30.00,NNE,31,11.0,-999.0,83,-99.99,,,0.00,weatherlink.com 1.10,2013-04-09 10:10:00,
2013-04-09 05:25:00,37.8,33.0,29.99,NE,39,5.0,-999.0,82,-99.99,,,0.00,weatherlink.com 1.10,2013-04-09 10:25:00,
2013-04-09 05:40:00,37.8,33.0,30.01,ENE,62,12.0,-999.0,82,-99.99,,,0.00,weatherlink.com 1.10,2013-04-09 10:40:00,
2013-04-09 05:55:00,37.6,33.0,30.01,NE,36,6.0,-999.0,82,-99.99,,,0.00,weatherlink.com 1.10,2013-04-09 10:55:00,
2013-04-09 06:10:00,37.6,32.0,30.00,NE,51,11.0,-999.0,81,-99.99,,,0.00,weatherlink.com 1.10,2013-04-09 11:10:00,
2013-04-09 06:25:00,37.5,33.0,30.00,NE,44,5.0,-999.0,82,-99.99,,,0.00,weatherlink.com 1.10,2013-04-09 11:25:00,
2013-04-09 06:40:00,37.5,32.0,29.99,NNE,32,14.0,-999.0,81,-99.99,,,0.00,weatherlink.com 1.10,2013-04-09 11:40:00,
2013-04-09 06:55:00,37.5,32.0,30.00,ENE,60,7.0,-999.0,81,-99.99,,,0.00,weatherlink.com 1.10,2013-04-09 11:55:00,
2013-04-09 07:10:00,37.3,32.0,30.00,NNE,14,6.0,-999.0,81,-99.99,,,0.00,weatherlink.com 1.10,2013-04-09 12:10:00,
2013-04-09 07:25:00,37.0,32.0,30.01,NE,40,9.0,-999.0,83,-99.99,,,0.00,weatherlink.com 1.10,2013-04-09 12:25:00,
2013-04-09 07:40:00,36.6,33.0,30.01,NE,55,11.0,-999.0,85,-99.99,,,0.02,weatherlink.com 1.10,2013-04-09 12:40:00,
2013-04-09 07:55:00,36.3,33.0,30.01,NE,51,5.0,-999.0,87,-99.99,,,0.05,weatherlink.com 1.10,2013-04-09 12:55:00,
2013-04-09 08:10:00,36.0,33.0,30.01,NE,56,11.0,-999.0,87,-99.99,,,0.06,weatherlink.com 1.10,2013-04-09 13:10:00,
2013-04-09 08:25:00,35.8,33.0,30.01,NNE,31,7.0,-999.0,88,-99.99,,,0.06,weatherlink.com 1.10,2013-04-09 13:25:00,
2013-04-09 08:40:00,35.6,32.0,30.00,ENE,72,6.0,-999.0,88,-99.99,,,0.07,weatherlink.com 1.10,2013-04-09 13:40:00,
2013-04-09 08:55:00,35.3,32.0,30.00,NE,34,11.0,-999.0,88,-99.99,,,0.08,weatherlink.com 1.10,2013-04-09 13:55:00,
2013-04-09 09:10:00,35.2,32.0,30.00,NE,39,13.0,-999.0,89,-99.99,,,0.10,weatherlink.com 1.10,2013-04-09 14:10:00,
2013-04-09 09:25:00,34.9,32.0,30.01,NNE,27,6.0,-999.0,89,-99.99,,,0.12,weatherlink.com 1.10,2013-04-09 14:25:00,
2013-04-09 09:40:00,34.6,32.0,30.01,NNE,21,13.0,-999.0,90,-99.99,,,0.15,weatherlink.com 1.10,2013-04-09 14:40:00,
2013-04-09 09:55:00,34.3,32.0,30.01,NNE,22,12.0,-999.0,90,-99.99,,,0.18,weatherlink.com 1.10,2013-04-09 14:55:00,
2013-04-09 10:10:00,34.0,31.0,30.02,NE,49,10.0,-999.0,90,-99.99,,,0.21,weatherlink.com 1.10,2013-04-09 15:10:00,
2013-04-09 10:25:00,33.8,31.0,30.03,NE,47,6.0,-999.0,90,-99.99,,,0.25,weatherlink.com 1.10,2013-04-09 15:25:00,
2013-04-09 10:40:00,33.8,32.0,30.03,ENE,60,11.0,-999.0,91,-99.99,,,0.29,weatherlink.com 1.10,2013-04-09 15:40:00,
2013-04-09 10:55:00,33.7,31.0,30.03,ENE,62,10.0,-999.0,91,-99.99,,,0.33,weatherlink.com 1.10,2013-04-09 15:55:00,
2013-04-09 11:10:00,33.5,31.0,30.05,NE,44,6.0,-999.0,91,-99.99,,,0.37,weatherlink.com 1.10,2013-04-09 16:10:00,
2013-04-09 11:25:00,33.5,32.0,30.06,NNE,12,6.0,-999.0,92,-99.99,,,0.39,weatherlink.com 1.10,2013-04-09 16:25:00,
2013-04-09 11:40:00,33.4,31.0,30.07,NNE,22,4.0,-999.0,91,-99.99,,,0.42,weatherlink.com 1.10,2013-04-09 16:40:00,
2013-04-09 11:55:00,33.1,31.0,30.06,NE,53,14.0,-999.0,91,-99.99,,,0.45,weatherlink.com 1.10,2013-04-09 16:55:00,
2013-04-09 12:10:00,33.5,32.0,30.06,ENE,66,14.0,-999.0,92,-99.99,,,0.47,weatherlink.com 1.10,2013-04-09 17:10:00,
2013-04-09 12:25:00,33.5,31.0,30.05,NE,51,9.0,-999.0,91,-99.99,,,0.48,weatherlink.com 1.10,2013-04-09 17:25:00,
2013-04-09 12:41:00,34.1,32.0,30.03,NE,40,10.0,-999.0,91,-99.99,,,0.49,weatherlink.com 1.10,2013-04-09 17:41:00,
2013-04-09 12:56:00,34.3,32.0,30.03,NNE,25,11.0,-999.0,90,-99.99,,,0.49,weatherlink.com 1.10,2013-04-09 17:56:00,
2013-04-09 13:10:00,34.4,32.0,30.05,NE,38,6.0,-999.0,90,-99.99,,,0.49,weatherlink.com 1.10,2013-04-09 18:10:00,
2013-04-09 13:26:00,35.0,32.0,30.05,NE,47,11.0,-999.0,88,-99.99,,,0.49,weatherlink.com 1.10,2013-04-09 18:26:00,
2013-04-09 13:41:00,36.0,32.0,30.02,NNE,24,11.0,-999.0,86,-99.99,,,0.49,weatherlink.com 1.10,2013-04-09 18:41:00,
2013-04-09 13:56:00,36.9,32.0,30.03,NE,44,7.0,-999.0,82,-99.99,,,0.49,weatherlink.com 1.10,2013-04-09 18:56:00,
2013-04-09 14:11:00,38.3,32.0,30.02,NE,36,14.0,-999.0,79,-99.99,,,0.49,weatherlink.com 1.10,2013-04-09 19:11:00,
2013-04-09 14:26:00,39.1,32.0,30.01,East,84,9.0,-999.0,75,-99.99,,,0.49,weatherlink.com 1.10,2013-04-09 19:26:00,
2013-04-09 14:41:00,40.2,32.0,30.01,NNE,32,7.0,-999.0,72,-99.99,,,0.49,weatherlink.com 1.10,2013-04-09 19:41:00,
2013-04-09 14:56:00,40.3,32.0,30.01,East,91,5.0,-999.0,71,-99.99,,,0.49,weatherlink.com 1.10,2013-04-09 19:56:00,
2013-04-09 15:11:00,41.1,31.0,30.02,ENE,58,15.0,-999.0,67,-99.99,,,0.49,weatherlink.com 1.10,2013-04-09 20:11:00,
2013-04-09 15:26:00,41.3,31.0,30.01,ENE,65,11.0,-999.0,66,-99.99,,,0.49,weatherlink.com 1.10,2013-04-09 20:26:00,
2013-04-09 15:41:00,41.2,31.0,30.02,NE,54,14.0,-999.0,67,-99.99,,,0.49,weatherlink.com 1.10,2013-04-09 20:41:00,
2013-04-09 15:56:00,41.5,31.0,30.03,NNE,21,7.0,-999.0,66,-99.99,,,0.49,weatherlink.com 1.10,2013-04-09 20:56:00,
2013-04-09 16:11:00,41.5,30.0,30.02,NE,52,3.0,-999.0,65,-99.99,,,0.49,weatherlink.com 1.10,2013-04-09 21:11:00,
2013-04-09 16:26:00,41.3,30.0,30.03,NNE,30,9.0,-999.0,65,-99.99,,,0.49,weatherlink.com 1.10,2013-04-09 21:26:00,
2013-04-09 16:56:00,41.8,31.0,30.04,ENE,58,6.0,-999.0,65,-99.99,,,0.49,weatherlink.com 1.10,2013-04-09 21:56:00,
2013-04-09 17:11:00,41.8,29.0,30.05,East,84,11.0,-999.0,62,-99.99,,,0.49,weatherlink.com 1.10,2013-04-09 22:11:00,
2013-04-09 17:41:00,41.8,29.0,30.05,ENE,75,9.0,-999.0,61,-99.99,,,0.49,weatherlink.com 1.10,2013-04-09 22:41:00,
2013-04-09 18:11:00,41.8,29.0,30.06,NE,48,5.0,-999.0,60,-99.99,,,0.49,weatherlink.com 1.10,2013-04-09 23:11:00,
2013-04-09 18:26:00,41.9,29.0,30.04,NNE,30,7.0,-999.0,60,-99.99,,,0.49,weatherlink.com 1.10,2013-04-09 23:26:00,
2013-04-09 18:55:00,41.8,28.0,30.06,NE,42,13.0,-999.0,59,-99.99,,,0.49,weatherlink.com 1.10,2013-04-09 23:55:00,
2013-04-09 19:10:00,41.8,28.0,30.06,NE,54,5.0,-999.0,59,-99.99,,,0.49,weatherlink.com 1.10,2013-04-10 00:10:00,
2013-04-09 19:25:00,41.6,28.0,30.04,NNE,17,10.0,-999.0,58,-99.99,,,0.49,weatherlink.com 1.10,2013-04-10 00:25:00,
2013-04-09 19:40:00,41.5,28.0,30.03,NE,37,5.0,-999.0,58,-99.99,,,0.49,weatherlink.com 1.10,2013-04-10 00:40:00,
2013-04-09 19:55:00,41.2,27.0,30.02,ENE,58,6.0,-999.0,58,-99.99,,,0.49,weatherlink.com 1.10,2013-04-10 00:55:00,
2013-04-09 20:10:00,40.8,27.0,30.02,NE,55,16.0,-999.0,58,-99.99,,,0.49,weatherlink.com 1.10,2013-04-10 01:10:00,
2013-04-09 20:25:00,40.2,27.0,30.01,NE,41,14.0,-999.0,59,-99.99,,,0.49,weatherlink.com 1.10,2013-04-10 01:25:00,
2013-04-09 20:40:00,39.6,27.0,30.02,ENE,63,13.0,-999.0,60,-99.99,,,0.49,weatherlink.com 1.10,2013-04-10 01:40:00,
2013-04-09 20:55:00,38.8,27.0,30.03,North,3,14.0,-999.0,63,-99.99,,,0.50,weatherlink.com 1.10,2013-04-10 01:55:00,
2013-04-09 21:10:00,38.2,26.0,30.03,NE,44,5.0,-999.0,63,-99.99,,,0.51,weatherlink.com 1.10,2013-04-10 02:10:00,
2013-04-09 21:25:00,37.6,27.0,30.03,NNE,26,6.0,-999.0,66,-99.99,,,0.52,weatherlink.com 1.10,2013-04-10 02:25:00,
2013-04-09 21:40:00,37.0,28.0,30.04,North,6,5.0,-999.0,69,-99.99,,,0.54,weatherlink.com 1.10,2013-04-10 02:40:00,
2013-04-09 21:55:00,36.6,28.0,30.06,East,81,0.0,-999.0,72,-99.99,,,0.56,weatherlink.com 1.10,2013-04-10 02:55:00,
2013-04-09 22:10:00,36.0,28.0,30.08,ENE,77,1.0,-999.0,73,-99.99,,,0.57,weatherlink.com 1.10,2013-04-10 03:10:00,
2013-04-09 22:25:00,35.6,28.0,30.11,NE,45,1.0,-999.0,75,-99.99,,,0.57,weatherlink.com 1.10,2013-04-10 03:25:00,
2013-04-09 22:40:00,35.3,29.0,30.14,NE,45,0.0,-999.0,77,-99.99,,,0.57,weatherlink.com 1.10,2013-04-10 03:40:00,
2013-04-09 22:55:00,34.6,29.0,30.14,NE,44,3.0,-999.0,80,-99.99,,,0.57,weatherlink.com 1.10,2013-04-10 03:55:00,
2013-04-09 23:10:00,33.2,30.0,30.15,NE,52,5.0,-999.0,86,-99.99,,,0.57,weatherlink.com 1.10,2013-04-10 04:10:00,
2013-04-09 23:25:00,32.5,30.0,30.15,NNE,25,6.0,-999.0,89,-99.99,,,0.57,weatherlink.com 1.10,2013-04-10 04:25:00,
2013-04-09 23:40:00,31.9,29.0,30.15,ENE,70,6.0,-999.0,90,-99.99,,,0.57,weatherlink.com 1.10,2013-04-10 04:40:00,
2013-04-09 23:55:00,31.5,29.0,30.14,NE,44,4.0,-999.0,91,-99.99,,,0.57,weatherlink.com 1.10,2013-04-10 04:55:00,